« Back
NWS Peachtree City, Ga » Text Product » GA Regional Weather Roundup


Printer-friendly Version
Current Version              Previous Versions:   1  2  3  4  5  6  7  8  9  

Regional Weather Roundup

772
ASUS42 KFFC 261403
RWRGA
WEATHER ROUNDUP FOR GEORGIA
NATIONAL WEATHER SERVICE PEACHTREE CITY GA
1000 AM EDT THU MAY 26 2016

NOTE: "FAIR" INDICATES FEW OR NO CLOUDS BELOW 12,000 FEET WITH NO
SIGNIFICANT WEATHER AND/OR OBSTRUCTIONS TO VISIBILITY.

* = USE WITH CAUTION. THE STATIONS MARKED WITH AN ASTERISK MAY NOT
REPORT WEATHER SUCH AS PRECIPITATION, FOG, OR THUNDER AND ARE NOT
QUALITY CONTROLLED BY NWS.

THE REMARK "TC" DENOTES TEMPERATURE READING IN DEGREES CELSIUS.

GAZ001>058-261500-
NORTH GEORGIA

CITY           SKY/WX    TMP DP  RH WIND       PRES   REMARKS
ATLANTA        PTSUNNY   77  61  57 CALM      30.21S
ATHENS         CLOUDY    73  63  70 VRB3      30.20F
CHAMBLEE       LGT RAIN  74  62  66 CALM      30.21S
PEACHTREE CITY SUNNY     75  64  68 CALM      30.21S
ROME           SUNNY     77  63  61 CALM      30.18S
WEST ATLANTA   PTSUNNY   71  65  81 CALM      30.20F
GAINESVILLE    MOSUNNY   77  60  55 SW6       30.23F
CARTERSVILLE   MOSUNNY   76  67  73 CALM      30.20S


CITY           SKY/WX    TMP DP  RH WIND       PRES   REMARKS
DALTON*        SUNNY     70  64  83 S3        30.19F
LAWRENCEVILLE* SUNNY     75  63  64 CALM      30.21F
MARIETTA       PTSUNNY   71  65  82 CALM      30.20F
KENNESAW*      PTSUNNY   70  63  78 CALM      30.18F
CANTON*        SUNNY     70  59  68 CALM      30.22S
BLAIRSVILLE*     N/A    N/A N/A N/A MISG      30.24F
$$

GAZ059>098-102>109-261500-
CENTRAL GEORGIA

CITY           SKY/WX    TMP DP  RH WIND       PRES   REMARKS
AUGUSTA-BUSH   SUNNY     78  61  55 SW8       30.20S
AUGUSTA-DANIEL SUNNY     79  60  52 SW8       30.21F
COLUMBUS       SUNNY     76  66  71 SW5       30.20R
MACON          SUNNY     78  64  61 S8        30.19F
ROBINS AFB     SUNNY     78  65  65 SW7       30.19F


CITY           SKY/WX    TMP DP  RH WIND       PRES   REMARKS
LAGRANGE*      SUNNY     81  68  65 CALM      30.20S
SYLVANIA*      MOSUNNY   77  69  74 CALM      30.22F
MILLEDGEVILLE* SUNNY     75  63  64 CALM      30.20F
$$

GAZ099>101-110>166-261500-
SOUTH GEORGIA

CITY           SKY/WX    TMP DP  RH WIND       PRES   REMARKS
SAVANNAH       MOSUNNY   79  67  66 SW6       30.22F
VALDOSTA       PTSUNNY   78  64  61 S7        30.21R
ALMA           SUNNY     78  65  63 S8        30.21F
ST SIMONS      PTSUNNY   80  63  55 E7        30.21S
FT STEWART     SUNNY     78  67  67 VRB1      30.20S
ALBANY         SUNNY     78  64  61 SW6       30.21F
HUNTER AFB     SUNNY     81  67  62 W3        30.20R
MOODY AFB      SUNNY     79  62  55 S7        30.20R
BRUNSWICK      PTSUNNY   79  64  61 CALM      30.22F


CITY           SKY/WX    TMP DP  RH WIND       PRES   REMARKS
BAINBRIDGE*    SUNNY     77  66  69 S3        30.19F
MOULTRIE*      SUNNY     77  61  57 SE7       30.21S
VIDALIA*       SUNNY     77  64  65 S7        30.21F
WAYCROSS*      SUNNY     78  67  68 SW6       30.21S
DOUGLAS*       SUNNY     79  63  57 SW6       30.23S
$$




USA.gov is the U.S. government's official web portal to all federal, state and local government web resources and services.